Weather in Caen

France     49°11′16″N   0°22′10″E
temp.,
°C
wind,
m/s
gust,
m/s
humid.,
%
clouds,
%
prec.,
mm/h
press.,
hPa
HPBL,
m
10 may, mon
mon1023:00+12wnw3497100 2.1 998106
02:00+12ssw51095100 3.1 999396
05:00+10ssw61492100 0.0 1000640
08:00+11ssw714860 0.0 1001853
11:00+14sw9126513 0.0 10031294
14:00+16sw9125693 0.3 10041911
17:00+16sw7105860 0.1 10051833
20:00+14sw4772100 0.3 1005186
11 may, tue
tue1123:00+10ssw477894 0.1 100795
02:00+8ssw368934 0.1 100898
05:00+7s3593100 0.0 1008100
08:00+8s3691100 0.0 1008224
11:00+12ssw577365 0.1 10091014
14:00+15sw8104948 0.2 10091993
17:00+15sw9116064 0.1 10101432
20:00+12sw610789 0.6 1011716
12 may, wed
wed1223:00+8ssw49905 0.1 1013194
02:00+6ssw410944 0.1 1013256
05:00+5s47958 0.0 1013124
08:00+6s36925 0.0 1013153
11:00+13s45675 0.0 1012988
14:00+16sse4652100 0.0 10101711
17:00+14s5775100 0.3 1010612
20:00+13se4779100 0.5 1009340
13 may, thu
thu1323:00+11se51188100 0.7 1008378
02:00+8wsw51093100 1.8 1009525
05:00+7ssw599499 0.0 1009297
08:00+7ssw5119586 0.0 1009396
11:00+11sw688577 0.4 1009776
14:00+12ssw5774100 0.8 1008833
17:00+13ssw578494 2.7 1007523
20:00+12sw368937 7.6 1007220
14 may, fri
fri1423:00+9sw349141 1.8 100863
02:00+7sw349410 1.8 100861
05:00+6sw339411 0.0 100862
08:00+7sw3495100 0.0 1011131
11:00+12w3473100 0.0 1011966
14:00+13nnw337265 0.9 1011797
17:00+14n336932 0.8 1012881
20:00+13nne117511 1.4 1012153